Location: Vancouver
(49.2500°N, 123.1330°W)
Time: 16:40:29
(UTC-07:00)

YAOGAN 6 - Visible Passes

Search period start: 31 July 2014 00:00
Search period end: 10 August 2014 00:00
Orbit: 481 x 529 km, 97.3° (Epoch: 31 July)

Date Brightness Start Highest point End Pass type
(mag) Time Alt. Az. Time Alt. Az. Time Alt. Az.
31 Jul 2.6 22:54:53 33° SE 22:56:19 63° ENE 22:59:53 10° N visible
01 Aug 5.2 00:29:41 10° WSW 00:30:37 11° W 00:31:41 10° WNW visible
01 Aug 3.3 22:36:50 24° ESE 22:38:26 39° ENE 22:41:47 10° N visible
02 Aug 4.7 00:11:38 16° WSW 00:12:29 17° W 00:14:56 10° NW visible
02 Aug 4.0 22:18:46 17° ESE 22:20:34 25° ENE 22:23:34 10° N visible
02 Aug 4.1 23:53:34 24° WSW 23:54:24 26° W 23:57:29 10° NW visible
03 Aug 4.5 22:00:42 11° ESE 22:02:45 17° ENE 22:05:09 10° NNE visible
03 Aug 3.4 23:35:30 35° SW 23:36:21 42° W 23:39:47 10° NNW visible
04 Aug 4.9 21:43:42 10° E 21:44:59 12° ENE 21:46:16 10° NE visible
04 Aug 2.7 23:17:26 46° SSW 23:18:21 69° WSW 23:21:56 10° NNW visible
05 Aug 2.5 22:59:22 43° SE 23:00:23 72° ENE 23:03:58 10° N visible
06 Aug 3.1 22:41:18 31° ESE 22:42:28 43° ENE 22:45:53 10° N visible
07 Aug 4.9 00:16:05 15° W 00:16:35 15° W 00:18:47 10° NW visible
07 Aug 3.8 22:23:13 21° ESE 22:24:35 28° ENE 22:27:41 10° N visible
07 Aug 4.3 23:58:01 23° WSW 23:58:28 24° W 00:01:25 10° NW visible
08 Aug 4.4 22:05:08 14° E 22:06:44 19° ENE 22:09:18 10° NNE visible
08 Aug 3.6 23:39:56 35° WSW 23:40:23 37° W 23:43:45 10° NNW visible
09 Aug 4.8 21:47:17 10° E 21:48:56 13° ENE 21:50:35 10° NNE visible
09 Aug 2.8 23:21:51 54° SW 23:22:21 61° W 23:25:55 10° NNW visible
